Time,TemperatureF,DewpointF,PressureIn,WindDirection,WindDirectionDegrees,WindSpeedMPH,WindSpeedGustMPH,Humidity,HourlyPrecipIn,Conditions,Clouds,dailyrainin,SoftwareType,DateUTC
2013-01-18 00:03:00,35.0,34.0,30.18,NNW,331,1.0,4.0,97,0.01,,,1.84,,2013-01-18 05:03:00,
2013-01-18 00:12:00,35.0,34.0,30.18,NNW,331,1.0,4.0,97,0.01,,,1.84,,2013-01-18 05:12:00,
2013-01-18 00:22:00,35.0,34.0,30.21,NW,317,1.0,2.0,96,0.00,,,1.84,,2013-01-18 05:22:00,
2013-01-18 00:33:00,34.0,33.0,30.21,NNW,329,1.0,2.0,96,0.00,,,1.84,,2013-01-18 05:33:00,
2013-01-18 00:42:00,34.0,33.0,30.21,NNW,329,1.0,2.0,96,0.00,,,1.84,,2013-01-18 05:42:00,
2013-01-18 00:53:00,34.0,32.0,30.21,NW,321,2.0,4.0,93,0.00,,,1.81,,2013-01-18 05:53:00,
2013-01-18 01:02:00,34.0,32.0,30.22,West,278,1.0,4.0,91,0.00,,,1.81,,2013-01-18 06:02:00,
2013-01-18 01:12:00,34.0,32.0,30.22,West,278,1.0,4.0,91,0.00,,,1.81,,2013-01-18 06:12:00,
2013-01-18 01:22:00,35.0,32.0,30.22,ENE,60,2.0,8.0,87,0.00,,,1.81,,2013-01-18 06:22:00,
2013-01-18 01:33:00,35.0,30.0,30.23,NW,312,3.0,6.0,82,0.00,,,1.81,,2013-01-18 06:33:00,
2013-01-18 01:43:00,35.0,30.0,30.23,NW,312,3.0,6.0,82,0.00,,,1.81,,2013-01-18 06:43:00,
2013-01-18 01:52:00,35.0,30.0,30.23,East,80,2.0,10.0,81,0.00,,,1.80,,2013-01-18 06:52:00,
2013-01-18 02:02:00,35.0,29.0,30.24,NNW,328,3.0,8.0,79,0.00,,,1.80,,2013-01-18 07:02:00,
2013-01-18 02:12:00,35.0,29.0,30.24,NNW,328,3.0,8.0,79,0.00,,,1.80,,2013-01-18 07:12:00,
2013-01-18 02:22:00,35.0,28.0,30.25,NNW,333,6.0,12.0,76,0.00,,,1.80,,2013-01-18 07:22:00,
2013-01-18 02:32:00,35.0,28.0,30.27,NNW,347,3.0,16.0,74,0.00,,,1.80,,2013-01-18 07:32:00,
2013-01-18 02:42:00,35.0,28.0,30.27,NNW,347,3.0,16.0,74,0.00,,,1.80,,2013-01-18 07:42:00,
2013-01-18 02:52:00,34.0,27.0,30.27,NE,34,6.0,10.0,75,0.00,,,1.80,,2013-01-18 07:52:00,
2013-01-18 03:02:00,34.0,27.0,30.28,North,10,4.0,11.0,74,0.00,,,1.80,,2013-01-18 08:02:00,
2013-01-18 03:12:00,34.0,27.0,30.28,North,10,4.0,11.0,74,0.00,,,1.80,,2013-01-18 08:12:00,
2013-01-18 03:22:00,34.0,27.0,30.28,North,10,4.0,11.0,74,0.00,,,1.80,,2013-01-18 08:22:00,
2013-01-18 03:32:00,33.0,26.0,30.29,East,79,3.0,9.0,76,0.00,,,1.80,,2013-01-18 08:32:00,
2013-01-18 03:42:00,33.0,26.0,30.29,East,79,3.0,9.0,76,0.00,,,1.80,,2013-01-18 08:42:00,
2013-01-18 03:53:00,33.0,26.0,30.29,NW,311,5.0,10.0,76,0.00,,,1.78,,2013-01-18 08:53:00,
2013-01-18 04:03:00,33.0,26.0,30.29,WNW,284,4.0,11.0,76,0.00,,,1.78,,2013-01-18 09:03:00,
2013-01-18 04:12:00,33.0,26.0,30.29,WNW,284,4.0,11.0,76,0.00,,,1.78,,2013-01-18 09:12:00,
2013-01-18 04:22:00,33.0,27.0,30.29,NNW,333,1.0,10.0,77,0.00,,,1.78,,2013-01-18 09:22:00,
2013-01-18 04:33:00,33.0,26.0,30.29,NW,317,3.0,12.0,76,0.00,,,1.78,,2013-01-18 09:33:00,
2013-01-18 04:42:00,33.0,26.0,30.29,NW,317,3.0,12.0,76,0.00,,,1.78,,2013-01-18 09:42:00,
2013-01-18 04:53:00,33.0,26.0,30.29,NW,304,4.0,7.0,75,0.00,,,1.74,,2013-01-18 09:53:00,
2013-01-18 05:03:00,33.0,26.0,30.28,WNW,294,4.0,7.0,74,0.00,,,1.74,,2013-01-18 10:03:00,
2013-01-18 05:12:00,33.0,26.0,30.28,WNW,294,4.0,7.0,74,0.00,,,1.74,,2013-01-18 10:12:00,
2013-01-18 05:22:00,33.0,26.0,30.29,WSW,246,4.0,9.0,74,0.00,,,1.74,,2013-01-18 10:22:00,
2013-01-18 05:32:00,33.0,26.0,30.29,NW,311,3.0,9.0,74,0.00,,,1.74,,2013-01-18 10:32:00,
2013-01-18 05:42:00,33.0,26.0,30.29,NW,311,3.0,9.0,74,0.00,,,1.74,,2013-01-18 10:42:00,
2013-01-18 05:53:00,33.0,25.0,30.30,NW,309,3.0,9.0,73,0.00,,,1.73,,2013-01-18 10:53:00,
2013-01-18 06:02:00,33.0,25.0,30.31,NW,320,4.0,12.0,72,0.00,,,1.73,,2013-01-18 11:02:00,
2013-01-18 06:12:00,33.0,25.0,30.31,NW,320,4.0,12.0,72,0.00,,,1.73,,2013-01-18 11:12:00,
2013-01-18 06:23:00,33.0,25.0,30.32,WNW,302,2.0,8.0,72,0.00,,,1.73,,2013-01-18 11:23:00,
2013-01-18 06:32:00,32.0,24.0,30.33,NW,326,4.0,9.0,72,0.00,,,1.73,,2013-01-18 11:32:00,
2013-01-18 06:42:00,32.0,24.0,30.33,NW,326,4.0,9.0,72,0.00,,,1.73,,2013-01-18 11:42:00,
2013-01-18 06:53:00,32.0,24.0,30.34,West,259,2.0,4.0,73,0.00,,,1.73,,2013-01-18 11:53:00,
2013-01-18 07:03:00,32.0,24.0,30.35,WNW,292,1.0,4.0,73,0.00,,,1.73,,2013-01-18 12:03:00,
2013-01-18 07:12:00,32.0,24.0,30.35,WNW,292,1.0,4.0,73,0.00,,,1.73,,2013-01-18 12:12:00,
2013-01-18 07:23:00,32.0,24.0,30.35,NW,309,1.0,5.0,73,0.00,,,1.73,,2013-01-18 12:23:00,
2013-01-18 07:33:00,32.0,24.0,30.35,NNW,327,2.0,4.0,72,0.00,,,1.73,,2013-01-18 12:33:00,
2013-01-18 07:43:00,32.0,24.0,30.35,NNW,327,2.0,4.0,72,0.00,,,1.73,,2013-01-18 12:43:00,
2013-01-18 07:53:00,31.0,24.0,30.37,WNW,292,2.0,6.0,74,0.00,,,1.69,,2013-01-18 12:53:00,
2013-01-18 08:03:00,32.0,24.0,30.37,WNW,282,1.0,4.0,73,0.00,,,1.69,,2013-01-18 13:03:00,
2013-01-18 08:12:00,32.0,24.0,30.37,WNW,282,1.0,4.0,73,0.00,,,1.69,,2013-01-18 13:12:00,
2013-01-18 08:23:00,32.0,24.0,30.38,SSE,147,2.0,3.0,73,0.00,,,1.69,,2013-01-18 13:23:00,
2013-01-18 08:33:00,33.0,25.0,30.40,SSE,153,1.0,3.0,71,0.00,,,1.69,,2013-01-18 13:33:00,
2013-01-18 08:43:00,33.0,25.0,30.40,SSE,153,1.0,3.0,71,0.00,,,1.69,,2013-01-18 13:43:00,
2013-01-18 08:53:00,34.0,26.0,30.41,SSE,148,1.0,3.0,71,0.00,,,1.64,,2013-01-18 13:53:00,
2013-01-18 09:03:00,34.0,25.0,30.41,NNW,336,1.0,4.0,68,0.00,,,1.64,,2013-01-18 14:03:00,
2013-01-18 09:12:00,34.0,25.0,30.41,NNW,336,1.0,4.0,68,0.00,,,1.64,,2013-01-18 14:12:00,
2013-01-18 09:23:00,34.0,25.0,30.41,NNW,336,1.0,4.0,68,0.00,,,1.64,,2013-01-18 14:23:00,
2013-01-18 09:33:00,35.0,24.0,30.45,NNE,13,2.0,4.0,64,0.00,,,1.64,,2013-01-18 14:33:00,
2013-01-18 09:43:00,35.0,24.0,30.45,NNE,13,2.0,4.0,64,0.00,,,1.64,,2013-01-18 14:43:00,
2013-01-18 09:53:00,36.0,24.0,30.45,NNW,333,2.0,6.0,62,0.02,,,1.62,,2013-01-18 14:53:00,
2013-01-18 10:03:00,36.0,25.0,30.47,NW,306,0.0,6.0,64,0.04,,,1.64,,2013-01-18 15:03:00,
2013-01-18 10:13:00,36.0,25.0,30.47,NW,306,0.0,6.0,64,0.04,,,1.64,,2013-01-18 15:13:00,
2013-01-18 10:23:00,37.0,24.0,30.47,NW,315,2.0,4.0,59,0.05,,,1.65,,2013-01-18 15:23:00,
2013-01-18 10:34:00,37.0,24.0,30.48,ENE,69,1.0,3.0,58,0.07,,,1.67,,2013-01-18 15:34:00,
2013-01-18 10:43:00,37.0,24.0,30.48,ENE,69,1.0,3.0,58,0.07,,,1.67,,2013-01-18 15:43:00,
2013-01-18 10:53:00,38.0,24.0,30.48,West,271,2.0,5.0,57,0.06,,,1.64,,2013-01-18 15:53:00,
2013-01-18 11:03:00,38.0,23.0,30.49,North,355,3.0,4.0,55,0.05,,,1.65,,2013-01-18 16:03:00,
2013-01-18 11:12:00,38.0,23.0,30.49,North,355,3.0,4.0,55,0.05,,,1.65,,2013-01-18 16:12:00,
2013-01-18 11:23:00,38.0,22.0,30.49,ENE,61,5.0,6.0,51,0.04,,,1.66,,2013-01-18 16:23:00,
2013-01-18 11:33:00,39.0,24.0,30.49,ENE,57,2.0,8.0,55,0.04,,,1.67,,2013-01-18 16:33:00,
2013-01-18 11:42:00,39.0,24.0,30.49,ENE,57,2.0,8.0,55,0.04,,,1.67,,2013-01-18 16:42:00,
2013-01-18 11:53:00,39.0,23.0,30.50,West,281,3.0,7.0,52,0.04,,,1.52,,2013-01-18 16:53:00,
2013-01-18 12:03:00,40.0,26.0,30.49,NW,311,2.0,9.0,56,0.03,,,1.52,,2013-01-18 17:03:00,
2013-01-18 12:13:00,40.0,26.0,30.49,NW,311,2.0,9.0,56,0.03,,,1.52,,2013-01-18 17:13:00,
2013-01-18 12:23:00,40.0,23.0,30.49,ENE,67,2.0,6.0,50,0.03,,,1.53,,2013-01-18 17:23:00,
2013-01-18 12:34:00,41.0,24.0,30.48,NW,319,4.0,7.0,50,0.03,,,1.54,,2013-01-18 17:34:00,
2013-01-18 12:43:00,41.0,24.0,30.48,NW,319,4.0,7.0,50,0.03,,,1.54,,2013-01-18 17:43:00,
2013-01-18 12:53:00,41.0,23.0,30.47,WNW,294,4.0,7.0,48,0.02,,,1.44,,2013-01-18 17:53:00,
2013-01-18 13:03:00,42.0,26.0,30.47,NNW,345,1.0,5.0,53,0.02,,,1.44,,2013-01-18 18:03:00,
2013-01-18 13:13:00,42.0,26.0,30.47,NNW,345,1.0,5.0,53,0.02,,,1.44,,2013-01-18 18:13:00,
2013-01-18 13:23:00,42.0,23.0,30.47,West,278,1.0,5.0,47,0.02,,,1.45,,2013-01-18 18:23:00,
2013-01-18 13:33:00,42.0,23.0,30.47,West,263,2.0,4.0,47,0.01,,,1.45,,2013-01-18 18:33:00,
2013-01-18 13:43:00,42.0,23.0,30.47,West,263,2.0,4.0,47,0.01,,,1.45,,2013-01-18 18:43:00,
2013-01-18 13:53:00,42.0,22.0,30.47,NNW,345,2.0,3.0,45,0.02,,,1.44,,2013-01-18 18:53:00,
2013-01-18 14:03:00,43.0,24.0,30.47,NNE,16,2.0,6.0,47,0.02,,,1.44,,2013-01-18 19:03:00,
2013-01-18 14:13:00,43.0,24.0,30.47,NNE,16,2.0,6.0,47,0.02,,,1.44,,2013-01-18 19:13:00,
2013-01-18 14:23:00,43.0,23.0,30.47,WNW,297,3.0,6.0,45,0.01,,,1.44,,2013-01-18 19:23:00,
2013-01-18 14:33:00,44.0,24.0,30.47,NW,304,3.0,5.0,45,0.01,,,1.44,,2013-01-18 19:33:00,
2013-01-18 14:43:00,44.0,24.0,30.47,NW,304,3.0,5.0,45,0.01,,,1.44,,2013-01-18 19:43:00,
2013-01-18 14:53:00,44.0,24.0,30.46,NE,50,2.0,6.0,45,0.00,,,1.29,,2013-01-18 19:53:00,
2013-01-18 15:03:00,44.0,23.0,30.47,WNW,294,1.0,7.0,44,0.00,,,1.29,,2013-01-18 20:03:00,
2013-01-18 15:13:00,44.0,23.0,30.47,WNW,294,1.0,7.0,44,0.00,,,1.29,,2013-01-18 20:13:00,
2013-01-18 15:23:00,44.0,23.0,30.47,ENE,76,2.0,9.0,43,0.00,,,1.29,,2013-01-18 20:23:00,
2013-01-18 15:33:00,44.0,22.0,30.47,NNE,22,3.0,7.0,42,0.00,,,1.29,,2013-01-18 20:33:00,
2013-01-18 15:43:00,44.0,22.0,30.47,NNE,22,3.0,7.0,42,0.00,,,1.29,,2013-01-18 20:43:00,
2013-01-18 15:53:00,44.0,22.0,30.47,ENE,69,2.0,9.0,41,0.00,,,1.10,,2013-01-18 20:53:00,
2013-01-18 16:03:00,43.0,21.0,30.48,NE,49,1.0,7.0,41,0.00,,,1.10,,2013-01-18 21:03:00,
2013-01-18 16:13:00,43.0,21.0,30.48,NE,49,1.0,7.0,41,0.00,,,1.10,,2013-01-18 21:13:00,
2013-01-18 16:23:00,43.0,21.0,30.48,ENE,67,3.0,8.0,41,0.00,,,1.10,,2013-01-18 21:23:00,
2013-01-18 16:33:00,44.0,24.0,30.48,North,5,2.0,5.0,45,0.00,,,1.10,,2013-01-18 21:33:00,
2013-01-18 16:43:00,44.0,24.0,30.48,North,5,2.0,5.0,45,0.00,,,1.10,,2013-01-18 21:43:00,
2013-01-18 16:53:00,44.0,23.0,30.49,NE,37,2.0,4.0,44,0.00,,,0.88,,2013-01-18 21:53:00,
2013-01-18 17:03:00,44.0,23.0,30.49,NE,37,2.0,4.0,44,0.00,,,0.88,,2013-01-18 22:03:00,
2013-01-18 17:12:00,44.0,23.0,30.49,NE,37,2.0,4.0,44,0.00,,,0.88,,2013-01-18 22:12:00,
2013-01-18 17:23:00,43.0,24.0,30.50,ENE,69,1.0,3.0,46,0.00,,,0.88,,2013-01-18 22:23:00,
2013-01-18 17:33:00,42.0,23.0,30.50,ENE,57,3.0,4.0,47,0.00,,,0.88,,2013-01-18 22:33:00,
2013-01-18 17:43:00,42.0,23.0,30.50,ENE,57,3.0,4.0,47,0.00,,,0.88,,2013-01-18 22:43:00,
2013-01-18 17:53:00,41.0,23.0,30.50,East,83,2.0,4.0,49,0.00,,,0.72,,2013-01-18 22:53:00,
2013-01-18 18:03:00,40.0,24.0,30.50,ENE,65,0.0,1.0,53,0.00,,,0.72,,2013-01-18 23:03:00,
2013-01-18 18:12:00,40.0,24.0,30.50,ENE,65,0.0,1.0,53,0.00,,,0.72,,2013-01-18 23:12:00,
2013-01-18 18:23:00,39.0,24.0,30.51,ENE,65,2.0,5.0,54,0.00,,,0.72,,2013-01-18 23:23:00,
2013-01-18 18:33:00,38.0,25.0,30.51,ENE,65,0.0,1.0,59,0.00,,,0.72,,2013-01-18 23:33:00,
2013-01-18 18:43:00,38.0,25.0,30.51,ENE,65,0.0,1.0,59,0.00,,,0.72,,2013-01-18 23:43:00,
2013-01-18 18:53:00,37.0,24.0,30.52,ENE,65,0.0,0.0,59,0.00,,,0.51,,2013-01-18 23:53:00,
2013-01-18 19:02:00,35.0,24.0,30.52,ENE,65,0.0,0.0,64,0.00,,,0.51,,2013-01-19 00:02:00,
2013-01-18 19:12:00,35.0,24.0,30.52,ENE,65,0.0,0.0,64,0.00,,,0.51,,2013-01-19 00:12:00,
2013-01-18 19:23:00,35.0,25.0,30.52,ENE,65,0.0,0.0,66,0.00,,,0.51,,2013-01-19 00:23:00,
2013-01-18 19:33:00,33.0,25.0,30.53,ENE,65,0.0,0.0,71,0.00,,,0.51,,2013-01-19 00:33:00,
2013-01-18 19:43:00,33.0,25.0,30.53,ENE,65,0.0,0.0,71,0.00,,,0.51,,2013-01-19 00:43:00,
2013-01-18 19:53:00,33.0,25.0,30.53,ENE,65,0.0,0.0,71,0.00,,,0.51,,2013-01-19 00:53:00,
2013-01-18 20:03:00,31.0,26.0,30.52,ENE,65,0.0,0.0,80,0.00,,,0.34,,2013-01-19 01:03:00,
2013-01-18 20:12:00,31.0,26.0,30.52,ENE,65,0.0,0.0,80,0.00,,,0.34,,2013-01-19 01:12:00,
2013-01-18 20:23:00,31.0,26.0,30.52,ENE,65,0.0,0.0,81,0.00,,,0.34,,2013-01-19 01:23:00,
2013-01-18 20:33:00,30.0,25.0,30.51,ENE,65,0.0,0.0,82,0.00,,,0.34,,2013-01-19 01:33:00,
2013-01-18 20:42:00,30.0,25.0,30.51,ENE,65,0.0,0.0,82,0.00,,,0.34,,2013-01-19 01:42:00,
2013-01-18 20:53:00,30.0,25.0,30.51,ENE,65,0.0,0.0,82,0.00,,,0.26,,2013-01-19 01:53:00,
2013-01-18 21:02:00,30.0,26.0,30.51,ENE,65,0.0,0.0,84,0.00,,,0.26,,2013-01-19 02:02:00,
2013-01-18 21:12:00,30.0,26.0,30.51,ENE,65,0.0,0.0,84,0.00,,,0.26,,2013-01-19 02:12:00,
2013-01-18 21:23:00,30.0,25.0,30.51,ENE,65,0.0,0.0,83,0.00,,,0.26,,2013-01-19 02:23:00,
2013-01-18 21:33:00,30.0,25.0,30.50,ENE,65,0.0,0.0,83,0.00,,,0.26,,2013-01-19 02:33:00,
2013-01-18 21:43:00,30.0,25.0,30.50,ENE,65,0.0,0.0,83,0.00,,,0.26,,2013-01-19 02:43:00,
2013-01-18 21:53:00,30.0,25.0,30.50,ENE,65,0.0,0.0,83,0.00,,,0.26,,2013-01-19 02:53:00,
2013-01-18 22:03:00,30.0,25.0,30.50,ENE,65,0.0,0.0,83,0.00,,,0.26,,2013-01-19 03:03:00,
2013-01-18 22:23:00,29.0,26.0,30.51,ESE,115,0.0,0.0,87,0.00,,,0.19,,2013-01-19 03:23:00,
2013-01-18 22:33:00,28.0,25.0,30.51,ESE,119,0.0,0.0,89,0.00,,,0.19,,2013-01-19 03:33:00,
2013-01-18 22:44:00,28.0,25.0,30.51,ESE,119,0.0,0.0,89,0.00,,,0.19,,2013-01-19 03:44:00,
2013-01-18 22:53:00,28.0,25.0,30.50,SE,136,0.0,0.0,89,0.00,,,0.17,,2013-01-19 03:53:00,
2013-01-18 23:02:00,28.0,25.0,30.51,SE,136,0.0,0.0,88,0.00,,,0.17,,2013-01-19 04:02:00,
2013-01-18 23:12:00,28.0,25.0,30.51,SE,136,0.0,0.0,88,0.00,,,0.17,,2013-01-19 04:12:00,
2013-01-18 23:22:00,28.0,25.0,30.50,SE,136,0.0,0.0,89,0.00,,,0.17,,2013-01-19 04:22:00,
2013-01-18 23:32:00,27.0,25.0,30.50,South,182,1.0,3.0,91,0.00,,,0.17,,2013-01-19 04:32:00,
2013-01-18 23:42:00,27.0,25.0,30.50,South,182,1.0,3.0,91,0.00,,,0.17,,2013-01-19 04:42:00,
2013-01-18 23:53:00,27.0,25.0,30.50,South,182,1.0,2.0,92,0.00,,,0.16,,2013-01-19 04:53:00,